STARLINK-1606 (46144 NORAD) Tracking and Keplerian Element Data

This shows tracking and keplerian element data for the satellite.

Feedback or suggestion? Click here.




ElementValue
Catalog46144
NameSTARLINK-1606
Epoch Orbit1739
Epoch Day339.16667824
Epoch Year2020
RAAN282.6608
Inclination53
Eccentricity0.0001908
Argument of Perigee61.6523
Mean Anonmoly231.1687
Mean Motion15.05577028
Decay Rate2.274E-05
L11 46144U 20057AD 20339.16667824 .00002274 00000-0 17523-3 0 9996
L22 46144 53.0000 282.6608 0001908 61.6523 231.1687 15.05577028 17390

Live tracking and technical data element details for STARLINK-1606 (NORAD 46144). STARLINK-1606 can be tracked NOW for your location showing map with azimuth and elevation plus other details from your city location.

Track the satellite on the map from your city or location and see movement details for azimuth, elevation, latitude, longitude, range, height, and movement on the map or in text.







IsCatalogInMostPopularTable: catalog: 46144, numindb: 19
Update: records affected: 1



GetName: 46144 STARLINK-1606

Hit Count: updated at: Sun, 06 Dec 2020 01:56:34 GMT